This is the latest recevied weather packets stored in our database for station/object VA3ZFM-10. If no packets are shown the sender has not sent any weather packets the latest 1 day(s).
| Time | Temp. | Humidity | Pressure | Rain* | Wind** | Luminosity | Snow |
|---|---|---|---|---|---|---|---|
| 1778029674 | 7.22° C | 52% | 1007.2 hPa | 0 mm | 0 m/s | - | - |
| 1778029371 | 7.78° C | 50% | 1006.9 hPa | 0 mm | 0 m/s | - | - |
| 1778029068 | 7.78° C | 50% | 1006.9 hPa | 0 mm | 0 m/s | - | - |
| 1778028765 | 7.78° C | 50% | 1007.1 hPa | 0 mm | 0 m/s | - | - |
| 1778028461 | 7.78° C | 50% | 1006.5 hPa | 0 mm | 0 m/s | - | - |
| 1778028159 | 7.78° C | 49% | 1006.6 hPa | 0 mm | 0.45 m/s, 254° | - | - |
| 1778027854 | 7.78° C | 50% | 1006.7 hPa | 0 mm | 0.89 m/s, 280° | - | - |
| 1778027551 | 7.78° C | 50% | 1006.6 hPa | 0 mm | 0.45 m/s, 210° | - | - |
| 1778027247 | 7.78° C | 48% | 1006.6 hPa | 0 mm | 0.89 m/s, 299° | - | - |
| 1778026943 | 8.33° C | 47% | 1006.7 hPa | 0 mm | 0 m/s | - | - |
| 1778026639 | 8.33° C | 46% | 1006.6 hPa | 0 mm | 0 m/s | - | - |
| 1778026337 | 8.33° C | 46% | 1006.7 hPa | 0 mm | 0.45 m/s, 254° | - | - |
| 1778026034 | 8.33° C | 46% | 1006.6 hPa | 0 mm | 0.45 m/s, 229° | - | - |
| 1778025731 | 8.33° C | 45% | 1006.5 hPa | 0 mm | 0.89 m/s, 216° | - | - |
| 1778025429 | 8.33° C | 47% | 1006.5 hPa | 0 mm | 0.45 m/s, 243° | - | - |
| 1778025126 | 8.33° C | 47% | 1006.2 hPa | 0 mm | 0.89 m/s, 240° | - | - |
| 1778024823 | 8.89° C | 47% | 1006.2 hPa | 0 mm | 0 m/s | - | - |
| 1778024520 | 8.89° C | 46% | 1006.1 hPa | 0 mm | 0.89 m/s, 246° | - | - |
| 1778024216 | 8.89° C | 47% | 1006.4 hPa | 0 mm | 0 m/s | - | - |
| 1778023915 | 8.89° C | 47% | 1006.2 hPa | 0 mm | 0.45 m/s, 166° | - | - |
| 1778023612 | 8.89° C | 46% | 1006 hPa | 0 mm | 1.79 m/s, 217° | - | - |
| 1778023309 | 8.89° C | 47% | 1006.2 hPa | 0 mm | 0.45 m/s, 292° | - | - |
| 1778023006 | 8.89° C | 46% | 1006 hPa | 0 mm | 0.89 m/s, 333° | - | - |
| 1778022705 | 9.44° C | 46% | 1006.2 hPa | 0 mm | 0.89 m/s, 310° | - | - |
| 1778022402 | 9.44° C | 46% | 1006 hPa | 0 mm | 0.45 m/s, 233° | - | - |
* Rain latest hour (hover to see other rain measurements)
** Current wind speed in m/s (hover to see current wind gust speed)